Location: Innsbruck
(47.2657°N, 11.3914°E)
Time: 19:26:50
(UTC+01:00)

BEESAT 3 - Pass Details

Date: 12 December 2021
Orbit: 472 x 512 km, 64.9° (Epoch: 22 January)

Event Time Altitude Azimuth Distance (km) Brightness Sun altitude
Rises 18:05:34 0° 233° (SW) 2,554 ? -16.3°
Reaches altitude 10° 18:07:46 10° 240° (WSW) 1,684 ? -16.7°
Maximum altitude 18:11:22 44° 313° (NW) 702 ? -17.3°
Enters shadow 18:13:29 22° 15° (NNE) 1,141 ? -17.6°
